Location: Montreal
(45.5087°N, 73.5540°W)
Time: 14:25:41
(UTC-04:00)

OTV 5 (USA 277) - Visible Passes

Search period start: 15 October 2019 00:00
Search period end: 25 October 2019 00:00
Orbit: 310 x 324 km, 54.5° (Epoch: 08 October)

Date Brightness Start Highest point End Pass type
(mag) Time Alt. Az. Time Alt. Az. Time Alt. Az.
15 Oct ? 05:56:38 13° NNW 05:58:29 23° NNE 06:00:47 10° ENE visible
16 Oct ? 06:10:53 12° NW 06:13:13 41° NNE 06:15:50 10° ESE visible
17 Oct ? 04:54:19 15° NE 04:54:19 15° NE 04:55:16 10° ENE visible
17 Oct ? 06:25:13 11° WNW 06:27:49 82° SW 06:30:32 10° SE visible
18 Oct ? 05:08:44 25° ENE 05:08:44 25° ENE 05:10:27 10° E visible
18 Oct ? 06:39:49 10° WNW 06:42:17 30° SW 06:44:43 10° SSE visible
19 Oct ? 05:23:15 45° E 05:23:15 45° E 05:25:22 10° ESE visible
20 Oct ? 05:37:54 36° S 05:37:54 36° S 05:39:50 10° SE visible
21 Oct ? 05:52:40 15° SSW 05:52:40 15° SSW 05:53:38 10° S visible
